Location: *
(41.5956°N, 81.5192°W)
Time: 02:11:17
(UTC+00:00)

Daily predictions for brighter satellites

Satellite Brightness Start Highest point End
(mag) Time Altitude Azimuth Time Altitude Azimuth Time Altitude Azimuth
FREGAT/IRIS 4.2 00:00:39 10° ESE 00:02:25 16° ENE 00:04:12 10° NNE
Cosmos 1975 2.7 00:00:50 10° S 00:04:47 78° E 00:08:47 10° N
COSMO-SKYMED 1 4.0 00:03:50 10° N 00:07:59 44° WNW 00:12:05 10° SW
Lacrosse 4 Rocket 2.4 00:05:37 10° NW 00:09:31 46° WSW 00:13:23 10° S
Okean 2 3.6 00:06:12 10° N 00:10:18 78° W 00:14:24 10° S
Cosmos 1300 Rocket 3.4 00:09:13 10° S 00:13:30 71° E 00:17:48 10° NNE
DMSP B5D1-3 4.5 00:08:55 10° NNE 00:14:03 82° ESE 00:19:08 10° SSW
Meteor 1-12 Rocket 4.5 00:08:49 10° SSE 00:14:17 47° E 00:19:43 10° NNE
COSMOS 2428 3.4 00:11:48 10° N 00:17:02 37° ENE 00:22:15 10° SE
HJ-1C 3.7 00:15:05 10° SSE 00:18:19 46° ENE 00:21:34 10° N
MONITOR-E 4.4 00:15:56 10° SE 00:18:33 39° ENE 00:21:13 10° N
Ariane Rocket 3.0 00:15:18 10° SSE 00:20:20 74° ENE 00:25:24 10° N
Cosmos 2219 Rocket 2.8 00:15:27 10° N 00:20:39 37° ENE 00:25:39 11° SE
Cosmos 1842 3.3 00:16:45 10° N 00:20:41 60° E 00:24:34 10° SSE
Cosmos 2322 3.7 00:15:22 10° NNW 00:21:06 68° ENE 00:26:46 10° SSE
NOAA 11 4.2 00:17:55 10° SSE 00:23:24 78° ENE 00:28:54 10° N
Cosmos 1461 2.7 00:22:31 10° SSW 00:26:31 63° ESE 00:30:27 10° NE
USA 186 2.9 00:27:14 14° SE 00:29:27 28° ENE 00:32:25 10° NNE
Cosmos 2360 Rocket 2.8 00:25:56 10° NNW 00:31:31 61° WSW 00:37:03 10° S
Meteor 1-21 4.2 00:27:49 10° N 00:33:27 83° E 00:39:05 10° S
CZ-4 R/B 3.9 00:30:54 10° SSW 00:34:01 23° W 00:37:12 10° NW
IRS-1A Rocket 4.3 00:29:46 10° SSE 00:35:32 85° ENE 00:41:13 10° NNW
Cosmos 2074 Rocket 4.0 00:31:55 10° N 00:38:12 89° W 00:44:25 10° S
SL-8 R/B 4.0 00:33:41 10° WSW 00:38:27 69° NNW 00:43:15 10° ENE
SPOT 3 Rocket 4.0 00:34:30 11° SE 00:39:08 41° ENE 00:43:58 10° N
Cosmos 2219 3.9 00:34:36 10° SSE 00:39:32 30° ESE 00:44:29 10° NE
Cosmos 2227 Rocket 3.6 00:43:36 17° E 00:43:36 17° E 00:45:58 10° ENE
Meteor 2-9 Rocket 4.5 00:38:47 10° SSW 00:44:35 77° W 00:50:18 10° N
GPS 2-05 Rocket1 4.4 00:46:13 10° SW 00:48:05 16° SSW 00:48:46 15° S
Resurs 01 Rocket 3.1 00:48:41 19° ENE 00:49:15 20° ENE 00:52:25 10° NNE
Cosmos 1544 2.9 00:46:55 10° S 00:50:30 85° ESE 00:54:07 10° N
Cosmos 2297 Rocket 3.2 00:49:00 10° SSE 00:53:23 24° ESE 00:57:47 10° NE
SJ-11-01 4.2 00:48:53 10° SSE 00:53:36 72° ENE 00:58:22 10° N
Okean 1 Rocket 2.9 00:49:33 10° S 00:53:53 82° E 00:58:14 10° N
Cosmos 1441 Rocket 3.2 00:52:56 10° S 00:56:46 84° W 01:00:36 10° N
SAR-Lupe-2 3.9 00:53:16 10° N 00:56:51 67° WNW 01:00:23 10° SSW
ARGOS 3.5 00:54:26 22° SE 00:57:27 43° ENE 01:02:30 10° N
Cosmos 2154 Rocket 3.9 00:52:25 10° N 00:58:39 79° E 01:04:51 10° S
NOSS 3-4 (A) 4.1 00:53:17 10° NNW 01:00:07 51° NE 01:04:26 25° ESE
NOSS 3-4 (C) 4.2 00:53:23 10° NNW 01:00:13 51° NE 01:04:30 25° ESE
GP-B 3.8 00:56:04 10° N 01:00:26 56° W 01:04:46 10° SSW
Cosmos 1371 Rocket 4.3 01:02:14 10° S 01:07:13 44° ESE 01:12:16 10° NNE
SJ-6B 2.8 01:05:24 22° SSE 01:08:02 81° ENE 01:12:10 10° N
COSMOS 2455 3.4 01:03:18 10° NW 01:09:11 56° WSW 01:15:01 10° S
Cosmos 2333 Rocket 2.2 01:04:51 10° NNW 01:10:34 87° WSW 01:14:36 20° SSE
H-2A R/B 2.0 01:08:34 29° SE 01:10:53 58° ENE 01:15:47 10° N
Meteor 2-5 Rocket 4.4 01:09:54 10° N 01:15:12 35° ENE 01:16:12 33° E
SL-8 Rocket 4.2 01:10:44 10° N 01:16:41 45° ENE 01:18:42 34° ESE
Cosmos 1707 2.7 01:15:40 10° N 01:19:36 87° WSW 01:20:57 40° S
Cosmos 389 Rocket 3.0 01:17:27 10° N 01:20:04 43° NNE 01:20:04 43° NNE
MetOp-A 4.4 01:22:53 41° ESE 01:24:00 48° ENE 01:29:09 10° N
Cosmos 2237 Rocket 2.5 01:19:36 10° NNW 01:25:08 49° ENE 01:26:23 42° E
Okean 1-7 Rocket 3.5 01:25:49 10° N 01:30:14 67° E 01:30:31 65° ESE
In-Cosmos 22 4.0 01:24:59 10° N 01:30:19 69° E 01:31:54 45° SE
DELTA 2 R/B (1) 4.2 01:25:45 10° SW 01:30:38 37° SSE 01:30:38 37° SSE
Cosmos 1892 Rocket 3.4 01:27:02 10° N 01:31:29 67° E 01:31:39 66° E
Meteor 1-4 Rocket 3.6 01:29:07 10° N 01:31:21 34° NNE 01:31:21 34° NNE
Cosmos 1980 3.7 01:28:14 10° NNW 01:33:51 61° ENE 01:34:56 51° ESE
Meteor 2-17 Rocket 4.3 01:30:38 10° N 01:36:43 74° E 01:38:54 42° SSE
ASTEX 1 4.5 01:33:02 10° N 01:37:41 44° WNW 01:42:18 10° SSW
ADEOS Rocket 3.4 01:31:37 10° NNE 01:38:57 86° ESE 01:46:43 10° SSW
Cosmos 1190 Rocket 3.9 01:36:58 10° NNW 01:42:16 67° ENE 01:42:40 64° E
ATLAS 2AS CENTAUR R/B 3.0 01:36:24 10° NW 01:43:57 68° WSW 01:47:16 34° SSE
CZ-2C R/B 2.9 01:48:21 71° ESE 01:48:48 77° ENE 01:54:12 10° N
SL-16 R/B 3.2 01:48:32 10° N 01:53:06 32° NE 01:53:06 32° NE
COSMOS 2428 4.1 01:56:12 10° NW 02:01:11 33° WSW 02:04:23 19° SSW
SL-08 RB Rocket 4.1 02:04:06 59° WSW 02:04:12 60° W 02:08:50 10° NNW
NOSS 0 Rocket 4.3 01:58:22 10° NNW 02:04:27 59° WSW 02:06:09 44° SSW
Cosmos 2219 Rocket 3.7 01:59:36 10° NW 02:04:28 31° WSW 02:07:24 19° SSW
DMSP B5D2-2 4.3 01:59:44 10° NNE 02:04:07 61° NNE 02:04:07 61° NNE
Cosmos 2056 Rocket 3.8 02:01:01 10° SSW 02:06:23 67° WNW 02:11:48 10° NNE
Cosmos 1455 Rocket 4.0 02:12:59 46° NW 02:12:59 46° NW 02:16:35 10° N
Cosmos 407 Rocket 4.0 02:11:11 10° NNW 02:16:07 54° WSW 02:16:07 54° WSW
CZ-2C R/B 3.9 02:16:18 10° NNE 02:19:17 33° NNE 02:19:17 33° NNE
SL-08 R/B 4.5 02:16:50 10° N 02:23:06 83° NNE 02:23:06 83° NNE
Cosmos 2219 4.4 02:18:08 10° SW 02:23:31 40° WNW 02:28:55 10° N
Resurs 01 Rocket 3.0 02:26:16 36° WNW 02:26:16 36° WNW 02:29:38 10° NNW
Cosmos 2227 Rocket 2.5 02:25:06 59° W 02:25:44 64° WNW 02:31:24 10° NNE
Spot 2 Rocket 4.5 02:38:06 43° NW 02:38:06 43° NW 02:41:39 10° NNW
Cosmos 2297 Rocket 3.0 02:31:35 10° SW 02:37:03 49° WNW 02:42:34 10° NNE
FALCON 9 R/B 4.3 02:06:16 10° W 02:44:48 59° SSW 02:47:42 52° SSE
Meteor 1-24 Rocket 4.5 02:41:51 10° NNW 02:46:38 51° WNW 02:46:38 51° WNW
H-2A R/B 4.4 02:49:12 14° WSW 02:50:43 16° W 02:53:39 10° NW
Terra 4.3 02:54:16 15° N 02:54:16 15° N 02:55:11 10° N
USA 234 4.5 03:04:13 30° NNE 03:04:38 31° NNE 03:10:12 10° NW
Cosmos 2237 Rocket 4.1 03:04:22 10° NW 03:08:13 24° W 03:08:13 24° W
SL-16 R/B 4.2 03:32:35 10° NW 03:34:58 23° NW 03:34:58 23° NW
SL-16 R/B 4.5 06:19:32 23° NNE 06:19:32 23° NNE 06:22:13 10° N
ATLAS 5 CENTAUR R/B 4.5 07:19:15 14° NNE 07:19:15 14° NNE 07:20:07 10° NNE
CZ-2D R/B 4.2 07:15:29 10° NNE 07:17:18 22° NNE 07:17:18 22° NNE
Cosmos 2344 3.8 07:43:41 55° ESE 07:43:43 55° ESE 07:51:21 10° NE
Atlas Centaur 2 4.4 07:47:19 20° SE 07:47:19 20° SE 07:50:16 10° ESE
ARIANE 5 R/B 4.1 07:40:47 10° NNE 07:43:46 32° NE 07:43:46 32° NE
CENTAUR R/B 3.8 07:52:44 28° ESE 07:53:03 28° ESE 07:58:30 10° NE
Cosmos 2369 Rocket 3.5 07:56:41 33° ESE 07:56:41 33° ESE 08:01:42 10° NE
SL-16 R/B 4.5 08:04:38 16° NW 08:04:38 16° NW 08:05:59 10° NNW
Lacrosse 5 4.4 08:00:13 12° NNW 08:02:07 14° N 08:04:46 10° NE
USA 238 DEB 3.6 08:06:04 78° NNE 08:06:04 78° NNE 08:12:29 10° NE
USA 238 3.6 08:06:08 79° NNE 08:06:08 79° NNE 08:12:36 10° NE
Cosmos 2279 Rocket 4.3 08:00:15 10° N 08:05:13 59° N 08:05:13 59° N
Lacrosse 5 rocket 3.7 08:09:53 21° NNE 08:10:17 21° NNE 08:13:38 10° E
Cosmos 2278 Rocket 4.2 08:20:52 16° NNW 08:20:52 16° NNW 08:23:12 10° N
ADEOS II 2.7 08:16:11 10° N 08:20:05 50° N 08:20:05 50° N
Cosmos 967 Rocket 4.4 08:16:40 10° NNW 08:23:10 89° SW 08:29:37 10° SSE
Resurs 1-4 Rocket 4.1 08:26:39 10° NNW 08:28:24 17° NNW 08:28:24 17° NNW
Nadezhda 4 Rocket 3.9 08:37:11 57° S 08:38:33 82° E 08:44:42 10° N
Spot 4 Rocket 4.4 08:34:33 10° N 08:38:44 53° NNW 08:38:44 53° NNW
NOSS 3-3 (A) 4.5 08:32:27 10° NW 08:40:05 87° NE 08:48:26 10° SE
NOSS 3-3 (C) 4.5 08:32:33 10° NW 08:40:12 86° ENE 08:48:32 10° SE
Unknown 4.5 08:44:00 48° E 08:44:00 48° E 08:47:13 10° ENE
Unknown 4.5 08:44:18 46° E 08:44:18 46° E 08:47:32 10° ENE
USA 215 4.1 08:39:55 10° ENE 08:46:03 41° SE 08:49:01 27° S
Unknown 4.4 08:46:55 49° E 08:46:55 49° E 08:50:17 10° ENE
CZ-3 R/B 4.5 07:53:48 10° W 08:48:05 56° SSW 09:00:56 10° ESE
Unknown 4.2 08:50:06 54° E 08:50:06 54° E 08:53:36 10° ENE
Cosmos 1943 Rocket 1.9 08:49:21 74° WSW 08:49:47 81° WNW 08:55:22 10° NNE
CZ-2C R/B 4.0 08:45:50 10° N 08:48:16 35° N 08:48:16 35° N
Cosmos 1461 3.9 08:47:23 15° NNW 08:50:33 44° NE 08:54:32 10° SE
Unknown 4.1 08:51:42 57° E 08:51:42 57° E 08:55:17 10° ENE
Meteor 1-25 Rocket 4.1 08:45:34 10° NNW 08:51:16 71° W 08:51:47 66° SW
NOSS 3-2 (A) 3.6 08:50:43 51° WNW 08:51:19 53° NW 08:57:41 10° NNE
Unknown 4.0 08:53:18 60° E 08:53:18 60° E 08:56:57 10° ENE
NOSS 3-2 (C) 3.2 08:52:21 62° WSW 08:53:18 76° NW 08:59:49 10° NNE
Unknown 3.9 08:54:53 63° E 08:54:53 63° E 08:58:35 10° NE
Iridium 4 Rocket 4.1 08:52:25 16° SSE 08:55:49 46° E 09:00:00 10° NNE
Meteor 1-14 Rocket 4.0 08:52:29 10° N 08:58:03 84° W 09:01:51 21° S
ATLAS 3B R/B 2.5 08:57:24 46° SSW 08:59:39 88° ESE 09:06:17 10° NE
CZ-2D R/B 4.3 08:57:52 10° NNW 08:58:37 11° NW 08:58:37 11° NW
Unknown 3.6 09:01:18 76° ESE 09:01:18 76° ESE 09:05:17 10° NE
Cosmos 2263 4.1 09:00:13 45° SSW 09:02:02 82° ESE 09:07:40 10° NNE
Unknown 3.6 09:02:53 80° ESE 09:02:53 80° ESE 09:06:56 10° NE
Unknown 3.5 09:04:30 83° ESE 09:04:30 83° ESE 09:08:36 10° NE
Meteor 1-26 Rocket 4.3 09:05:38 50° W 09:05:55 50° WNW 09:11:16 10° N
Unknown 3.5 09:06:05 86° SSE 09:06:06 86° SE 09:10:15 10° NE
Unknown 3.4 09:07:41 86° SSW 09:07:45 88° SE 09:11:55 10° NE
ADEOS 3.6 09:05:21 10° NNE 09:10:35 77° ESE 09:13:50 24° S
Unknown 3.4 09:10:51 80° WSW 09:11:03 87° NW 09:15:13 10° NE
Starlink (trailer) 3.4 09:12:27 77° WSW 09:12:44 84° NW 09:16:53 10° NE
Unknown 3.4 09:14:05 73° W 09:14:25 82° NW 09:18:35 10° NE
Unknown 3.4 09:15:40 70° W 09:16:05 80° NW 09:20:14 10° NE
Cosmos 2026 Rocket 4.2 09:11:48 10° S 09:18:01 75° E 09:24:22 10° N
SL-4 R/B 3.5 09:19:57 17° NNW 09:21:49 27° NNE 09:24:56 10° E
Unknown 3.6 09:22:03 57° W 09:22:43 71° NW 09:26:52 10° NE
Unknown 3.6 09:23:41 55° W 09:24:25 69° NW 09:28:33 10° NE
ARIANE 5 R/B 4.0 09:20:46 10° NNW 09:24:06 20° WNW 09:24:06 20° WNW
Unknown 3.6 09:24:21 53° W 09:25:07 67° NW 09:29:16 10° NE
H-2A R/B 2.3 09:23:07 10° NNE 09:26:58 75° ESE 09:29:14 23° S
Unknown 3.7 09:26:50 50° W 09:27:42 65° NW 09:31:50 10° NE
Unknown 3.8 09:28:33 46° W 09:29:29 60° NW 09:33:35 10° NE
Unknown 3.7 09:29:38 45° W 09:30:38 61° NW 09:34:45 10° NE
Cosmos 1315 Rocket 4.1 09:26:52 10° SSE 09:30:45 42° E 09:34:40 10° NNE
Unknown 3.8 09:31:42 42° W 09:32:47 57° NNW 09:36:53 10° NE
Atlas Centaur 2 3.6 09:29:56 25° SW 09:32:51 34° S 09:39:56 10° ESE
Cosmos 1707 Rocket 4.0 09:32:50 38° WSW 09:33:32 41° WNW 09:37:44 10° N
Unknown 3.8 09:33:13 41° W 09:34:22 58° NNW 09:38:28 10° NE
Unknown 3.8 09:33:57 40° W 09:35:07 57° NNW 09:39:13 10° NE
COSMOS 2487 2.2 09:32:06 10° NNW 09:35:36 85° WSW 09:39:02 10° SSE
Cosmos 1500 4.2 09:32:20 10° N 09:35:59 47° E 09:39:37 10° SSE
CZ-2C R/B 3.4 09:31:47 10° NNE 09:36:31 48° E 09:41:21 10° S
Cosmos 2195 Rocket 4.5 09:31:06 11° SSW 09:37:08 68° W 09:43:23 10° N
Unknown 3.8 09:36:21 38° W 09:37:38 56° NW 09:41:44 10° NE
Meteor 2-6 Rocket 4.3 09:33:43 15° SSW 09:38:37 68° WNW 09:44:32 10° N
Cosmos 1782 4.1 09:39:58 24° WNW 09:39:58 24° WNW 09:42:39 10° NNW
SeaSat 1 2.5 09:34:45 10° NNE 09:39:38 63° WNW 09:42:28 25° SW
Cosmos 2369 Rocket 2.9 09:38:30 28° W 09:40:35 37° WNW 09:45:51 10° N
Unknown 4.0 09:39:37 34° W 09:41:03 52° NNW 09:45:06 10° NE
Meteor 1-27 Rocket 4.1 09:35:11 10° S 09:41:03 71° E 09:46:51 10° NNE
USA 102 3.8 09:36:31 10° NNE 09:41:37 43° NW 09:41:37 43° NW
Unknown 4.0 09:41:15 33° W 09:42:44 50° NNW 09:46:47 10° NE
CENTAUR R/B 2.8 09:39:56 26° WSW 09:43:12 53° NW 09:50:02 10° NNE
Cosmos 1833 4.1 09:38:22 10° NNW 09:44:01 82° WSW 09:49:37 10° SSE
Unknown 4.0 09:42:49 31° W 09:44:22 49° NNW 09:48:25 10° NE
PAYLOAD A 4.0 09:39:36 10° NNE 09:44:23 72° ESE 09:49:03 10° S
Unknown 4.1 09:44:26 30° W 09:46:05 48° NNW 09:50:06 10° NE
Cosmos 1733 Rocket 3.0 09:42:09 10° NNW 09:46:35 67° W 09:50:59 10° S
Lacrosse 5 3.8 09:42:19 10° NNW 09:46:39 27° NNE 09:50:57 10° E
Meteor 1-10 Rocket 4.3 09:41:46 10° SSW 09:47:36 64° WNW 09:53:31 10° N
PSLV R/B 3.8 09:43:37 10° N 09:47:49 47° WNW 09:50:21 22° SW
Cosmos 1125 Rocket 4.1 09:43:37 10° NW 09:48:20 33° W 09:53:00 10° SSW
Unknown 4.2 09:47:40 28° W 09:49:26 45° NNW 09:53:26 10° NE
Lacrosse 5 rocket 1.3 09:45:36 10° NW 09:49:51 77° SW 09:54:19 10° SE
Cosmos 1656 Rocket 3.7 09:46:28 16° SW 09:51:00 69° WNW 09:56:41 10° NNE
Unknown 4.2 09:49:18 26° W 09:51:08 44° NNW 09:55:07 10° NE
Cosmos 1812 2.6 09:47:23 10° S 09:51:15 88° WNW 09:55:07 10° N
Cosmos 1400 Rocket 3.2 09:49:49 28° WSW 09:51:16 38° WNW 09:54:56 10° N
IDEFIX/ARIANE 42P 2.7 09:46:26 10° N 09:51:34 53° WNW 09:56:17 12° SW
Hubble Space Telescope 2.9 09:51:16 12° SSW 09:52:29 13° S 09:54:26 10° SSE
Unknown 4.2 09:50:51 25° W 09:52:47 43° NNW 09:56:45 10° NE
Cosmos 1428 Rocket 4.5 09:48:00 10° SSW 09:54:16 68° W 10:00:33 10° N
Unknown 4.2 09:52:20 25° W 09:54:19 43° NNW 09:58:18 10° NE
Meteor 1-11 Rocket 3.6 09:49:29 10° N 09:55:08 86° W 10:00:40 10° S
Unknown 4.3 09:54:17 23° W 09:56:22 41° NNW 10:00:19 10° NE
Unknown 4.3 09:55:24 23° W 09:57:33 43° NNW 10:01:31 10° NE
Cosmos 2344 4.5 09:53:42 18° W 09:58:34 34° NW 10:06:09 10° NNE
ADEOS II 4.1 09:59:03 10° NW 10:00:15 11° WNW 10:01:01 10° WNW
Unknown 4.3 09:58:36 21° W 10:00:53 41° NNW 10:04:50 10° NE
USA 81 4.1 09:57:05 10° SSW 10:02:14 55° W 10:07:26 10° N
Unknown 4.4 10:00:12 21° W 10:02:33 40° NNW 10:06:29 10° NE
Unknown 4.4 10:03:25 19° W 10:05:55 38° NNW 10:09:49 10° NE
Unknown 4.5 10:05:01 18° W 10:07:35 37° NNW 10:11:28 10° NE
Meteor 1-31 Rocket 2.7 10:08:08 10° N 10:12:04 81° WNW 10:15:57 10° SSW
Cosmos 1536 2.7 10:09:53 10° N 10:13:52 76° W 10:17:49 10° S
Cosmos 1782 Rocket 4.4 10:13:00 10° N 10:17:18 55° E 10:21:36 10° SSE
CZ-4B R/B 3.1 10:12:46 10° N 10:17:18 73° WNW 10:21:47 10° SSW
Cosmos 773 Rocket 4.0 10:12:24 10° SSW 10:17:33 66° WNW 10:22:42 10° NNE
Cosmos 44 4.1 10:17:31 13° WSW 10:21:34 35° NW 10:25:59 10° NNE
Cosmos 1346 Rocket 2.9 10:19:12 10° NNW 10:23:14 57° W 10:27:14 10° S
Cosmos 2242 Rocket 4.0 10:19:09 10° SSW 10:23:29 44° WNW 10:27:49 10° N
Cosmos 2266 Rocket 4.1 10:18:22 10° S 10:24:29 80° E 10:30:33 10° N
Cosmos 1703 Rocket 3.5 10:24:03 10° SSW 10:28:30 73° W 10:32:56 10° N
USA 215 3.5 10:22:46 10° NE 10:29:11 61° NW 10:35:35 10° WSW
Cosmos 1461 4.3 10:26:37 10° WNW 10:29:19 17° WSW 10:32:03 10° SSW
Cosmos 1666 2.7 10:27:21 10° N 10:31:07 88° E 10:34:53 10° S
MSX 4.4 10:28:32 10° N 10:33:46 37° WNW 10:38:58 10° SW
Aureole 2 Rocket 2.7 10:31:25 10° SW 10:33:51 29° WNW 10:36:15 10° N
Cosmos 1943 Rocket 4.0 10:31:42 10° WNW 10:34:28 14° NW 10:37:14 10° NNW
Meteor PRIRODA 3.6 10:31:39 10° N 10:35:18 62° WNW 10:38:57 10° SSW
Cosmos 1340 3.2 10:36:42 10° NNW 10:40:10 35° W 10:43:37 10° SSW
Cosmos 1484 Rocket 2.7 10:36:35 10° NNE 10:40:22 86° ESE 10:44:04 10° SSW
CZ-4B R/B 4.4 10:39:24 10° N 10:42:44 32° WNW 10:46:00 10° SW
Cosmos 1538 Rocket 4.3 10:39:21 10° SW 10:44:21 48° WNW 10:49:23 10° N
ATLAS CENTAUR R/B 4.3 10:42:35 10° N 10:44:58 14° NE 10:47:16 10° ENE
Cosmos 1553 Rocket 4.5 10:41:46 10° NNW 10:47:26 37° W 10:53:00 10° SSW
Cosmos 2315 Rocket 4.2 10:42:12 10° N 10:48:26 80° E 10:54:39 10° S
